Temperature
18 18 18 18 18 18 18 18 18 18 18 18 18 18 18 18 18 18 18 18 18 18 18 18 18 18 18 18 18 18 18 18 18 18 18 18 18 18 18 18 18 18 18
18 18 18 18 18 18 18 18 18 18 18 18 18 18 18 18 18 18 18 18 18 18 18 18 18 18 18 18 18 18 18 18 18 18 18 18 18 18 18 18 18 18 18
18 18 18 18 18 18 18 18 18 18 18 18 18 18 18 18 18 18 18 18 18 18 18 18 18 18 18 18 18 18 18 18 18 18 18 18 18 18 18 18 18 17 17
18 18 18 18 18 18 18 17 17 17 17 17 18 18 18 18 18 18 18 18 18 18 18 18 18 18 18 18 18 18 18 18 17 17 17 17 17 17 18 17 17 17 17
18 18 18 18 18 18 18 17 17 17 17 17 17 17 17 17 18 18 18 18 18 18 18 18 18 18 18 18 18 18 18 18 17 17 17 17 17 17 17 17 17 17 17
18 18 18 18 18 18 18 17 17 17 17 17 17 17 17 17 17 17 17 17 18 18 18 18 18 18 18 18 17 17 17 17 17 17 17 17 17 17 17 17 17 17 17
18 18 18 18 18 18 18 18 17 17 17 17 17 17 17 17 17 17 17 17 17 17 17 17 17 17 17 17 17 17 17 17 17 17 17 17 17 17 17 17 17 17 17
18 18 18 18 18 18 18 18 17 17 17 17 17 17 17 17 17 17 17 17 17 17 17 17 17 17 17 17 17 17 17 17 17 17 17 17 17 17 17 17 17 16 17
19 18 18 18 18 18 18 18 18 17 17 17 17 17 17 17 17 17 17 17 17 17 17 17 17 17 17 17 17 17 17 17 16 16 16 16 16 16 16 16 16 16 16
19 19 18 18 18 18 18 18 18 17 17 17 17 17 17 17 17 17 17 17 17 17 17 17 17 17 17 17 17 16 16 16 16 16 16 16 16 16 16 16 16 16 16
19 19 19 19 18 18 18 18 17 17 17 17 17 17 17 17 17 17 17 17 17 17 17 17 17 16 16 16 16 16 16 16 16 16 16 16 16 16 16 16 16 16 16
19 19 19 19 19 18 18 18 17 17 17 17 17 17 16 16 16 17 16 17 17 17 16 16 16 16 16 16 16 16 16 16 16 16 15 15 15 15 15 15 15 15 15
20 19 19 19 19 18 18 18 17 17 17 17 17 17 16 16 16 16 16 16 16 16 16 16 16 16 16 16 16 16 16 16 15 15 15 15 15 15 15 15 15 15 15
20 19 19 19 19 19 18 18 17 17 17 17 17 17 16 16 16 16 16 16 16 16 16 16 16 16 16 16 16 16 16 15 15 15 15 15 15 15 15 15 15 15 15
20 19 19 19 19 19 18 18 18 17 17 17 17 17 16 16 16 16 16 16 16 16 16 16 16 16 16 16 16 15 15 15 15 15 15 15 15 15 15 15 15 15 15
20 19 19 19 19 19 18 18 18 18 17 17 17 17 17 17 16 16 16 16 16 16 16 16 16 16 16 16 15 15 15 15 15 15 15 15 15 15 15 15 14 14 14
20 19 19 19 19 19 19 18 18 18 17 17 17 17 17 17 16 16 16 16 16 16 16 16 16 16 15 15 15 15 15 15 15 15 14 14 14 14 14 14 14 14 14
20 20 19 19 19 19 18 18 18 18 17 17 17 17 17 17 17 16 16 16 16 16 16 16 16 15 15 15 15 15 15 15 15 14 14 14 14 14 14 14 14 14 14
20 19 19 19 19 18 18 18 18 18 17 17 17 17 17 17 17 16 16 16 16 16 16 15 15 15 15 15 15 15 15 15 15 14 14 14 14 14 14 14 14 14 14
19 19 19 19 18 18 18 18 18 18 17 17 17 17 17 17 16 16 16 16 16 16 16 15 15 15 15 15 15 15 15 15 15 15 14 14 14 14 14 14 14 14 14
19 19 19 18 18 18 18 18 18 17 17 17 17 17 17 17 16 16 16 16 16 16 15 15 15 15 15 15 15 15 15 15 15 15 14 14 14 14 14 14 13 13 14
18 18 18 18 18 18 18 18 17 17 17 17 17 17 16 16 16 16 16 16 16 15 15 15 15 15 15 15 15 15 15 15 14 15 14 14 14 14 14 13 13 13 13
18 18 18 18 18 17 17 17 17 17 17 17 16 16 16 16 16 16 16 16 16 16 15 15 15 15 15 15 15 15 14 14 14 14 14 14 14 14 14 13 13 13 13
18 18 17 17 17 17 17 17 17 17 17 16 16 16 16 16 16 16 16 16 16 15 15 15 15 15 14 14 14 14 14 14 14 14 14 14 14 14 13 13 13 13 13
17 17 17 17 17 17 17 17 17 17 16 16 16 16 16 16 16 16 16 16 15 15 15 15 15 15 14 14 14 14 14 14 14 14 14 14 14 13 13 13 13 13 13
17 17 17 17 17 16 16 16 16 16 16 16 16 15 15 15 15 15 15 15 15 15 15 15 14 14 14 14 14 14 14 14 14 14 13 13 13 13 13 13 13 13 13
Wind_Speed
8 10 12 12 12 12 11 11 12 12 12 13 13 13 13 13 12 13 13 13 13 12 11 10 11 11 10 10 9 9 9 8 8 9 9 9 8 8 7 7 7 6 8
9 12 12 12 12 12 12 12 12 12 12 12 13 13 14 14 13 13 13 13 13 13 13 12 12 12 11 10 10 9 8 7 7 7 8 8 9 8 8 8 8 8 8
10 13 12 12 11 11 12 12 12 12 12 12 13 13 14 14 14 14 13 13 13 13 14 13 13 12 12 11 10 9 8 7 6 6 5 5 7 8 8 8 9 9 8
11 13 12 11 11 11 11 11 11 11 12 12 13 13 13 14 14 14 13 13 13 13 13 13 13 12 11 11 10 9 8 8 7 6 5 5 6 8 8 9 9 8 8
12 13 12 11 11 11 10 11 11 11 12 12 13 13 13 14 14 14 13 13 13 13 13 13 12 12 11 11 10 9 9 8 7 5 5 6 8 8 8 9 9 8 8
12 13 12 11 11 11 10 10 11 11 12 12 12 13 13 13 13 14 14 14 13 13 13 12 12 12 11 10 9 9 8 7 6 6 7 8 8 9 9 9 8 9 8
10 13 12 11 11 11 11 11 11 11 12 12 12 12 13 14 14 13 13 13 13 13 12 12 12 12 11 10 9 9 8 8 7 7 8 9 10 10 10 9 9 9 9
9 11 12 12 12 11 11 11 11 11 11 11 11 12 13 14 14 14 13 13 12 12 12 11 11 11 11 10 10 9 9 9 9 9 9 10 10 9 9 9 9 9 8
8 9 10 11 12 12 12 11 11 11 10 10 11 11 11 12 13 13 12 12 11 11 11 11 10 10 9 9 8 9 9 10 8 7 9 9 10 9 8 8 8 8 8
6 7 8 9 11 11 11 11 10 10 9 9 9 9 9 10 11 12 11 11 10 10 9 9 8 8 7 6 6 6 7 7 8 10 9 10 11 11 10 9 9 9 9
6 6 7 7 8 10 10 10 9 9 7 7 7 7 7 7 8 9 10 10 9 8 7 6 5 5 4 3 3 4 5 7 10 10 10 11 12 12 11 11 10 10 10
5 6 5 5 7 7 7 8 6 7 6 5 6 7 6 7 8 8 8 8 7 6 5 4 3 3 3 2 3 4 6 9 9 9 10 12 12 12 11 11 10 11 11
6 5 5 5 6 6 4 5 4 5 4 4 6 9 8 7 7 6 6 5 5 4 3 3 1 2 4 5 6 7 8 9 9 9 10 12 12 11 11 11 11 12 11
7 5 4 4 5 6 5 3 3 3 3 3 4 8 6 3 3 3 3 3 3 3 2 1 1 4 5 6 6 7 8 8 9 9 10 12 12 12 12 12 12 12 12
6 5 4 4 5 6 5 2 4 3 3 4 4 5 6 3 3 3 3 3 3 3 2 2 3 4 4 5 6 7 6 9 9 10 10 11 12 12 11 12 12 12 12
5 5 3 3 4 5 5 3 3 4 4 4 3 4 6 4 3 3 3 2 2 3 3 3 4 3 3 4 5 5 6 7 8 9 10 10 11 11 11 11 11 11 11
5 6 4 3 3 4 4 4 4 4 4 3 2 4 6 6 5 4 3 2 2 4 4 4 4 3 3 3 4 4 5 5 6 8 8 8 8 10 10 10 10 10 9
4 6 6 4 3 3 4 4 3 4 4 3 3 4 5 7 7 4 2 2 3 4 3 2 2 2 3 3 3 3 3 3 4 5 6 7 7 8 8 8 8 9 9
4 5 5 4 4 4 4 3 3 3 3 3 4 4 4 5 6 4 2 2 4 3 2 2 3 2 2 2 2 2 2 3 2 4 4 5 7 8 7 7 7 7 8
3 4 5 4 4 4 2 3 3 3 2 3 3 4 4 4 5 4 2 3 4 3 2 2 2 2 1 0 1 2 2 3 2 3 3 4 5 6 6 7 6 6 6
3 3 4 4 3 4 2 2 2 2 2 2 3 3 3 3 4 3 2 2 2 2 2 2 2 2 2 2 2 1 1 2 3 3 2 2 3 4 5 6 5 6 5
2 1 2 2 3 4 3 3 2 3 2 2 2 2 3 3 3 3 2 2 2 2 2 2 2 1 1 2 1 1 1 2 1 2 2 2 2 3 3 5 5 5 6
1 1 1 2 3 3 3 3 3 3 2 2 2 1 2 2 3 3 3 2 1 2 2 1 2 2 1 1 2 2 1 0 1 1 1 2 3 2 2 3 4 6 7
2 1 1 2 2 3 3 2 3 3 2 2 2 1 1 2 2 2 2 1 2 1 1 1 2 1 2 1 1 2 1 2 1 1 2 2 3 2 2 2 3 5 7
3 2 2 2 2 2 2 2 2 2 2 2 2 2 2 1 1 2 2 2 2 1 1 1 2 2 1 0 0 1 2 2 0 1 0 1 1 1 1 1 3 4 6
3 3 2 2 2 2 1 1 2 2 2 3 2 2 2 1 1 1 2 1 1 1 1 1 1 1 0 0 0 1 1 0 0 0 0 0 0 0 1 2 2 3 5
Wind_Direction
84 81 68 64 64 66 66 65 65 62 61 61 61 60 58 62 68 72 72 71 68 65 68 80 82 82 83 81 78 77 77 83 82 82 81 82 84 82 78 79 74 75 84
95 89 74 67 67 68 71 69 67 66 64 62 62 62 62 65 72 74 74 74 71 68 69 78 81 79 78 77 78 77 77 78 78 81 83 81 84 85 81 74 73 80 87
94 93 78 68 69 69 71 72 71 69 68 66 65 64 65 66 71 73 75 76 74 72 71 74 78 76 75 73 76 79 78 72 69 69 72 88 93 88 84 78 73 72 79
90 86 78 72 71 72 71 72 73 71 70 71 68 67 68 69 71 72 73 75 74 72 71 72 76 76 76 73 73 73 69 60 60 60 62 78 86 88 86 83 81 71 72
87 86 81 76 74 76 76 75 74 72 73 72 70 68 70 73 73 74 75 75 74 74 73 71 75 76 74 69 66 64 59 54 53 49 61 68 77 86 88 86 83 77 75
95 94 87 81 79 80 80 79 78 76 76 74 73 72 73 75 76 75 74 74 74 74 74 73 72 72 71 67 64 58 51 48 44 51 64 68 76 84 85 83 81 79 79
104 104 98 90 85 84 83 81 80 81 81 79 77 75 77 77 77 76 75 74 74 75 76 75 72 70 69 65 61 54 46 46 63 60 67 69 76 81 81 81 80 79 79
106 111 113 104 96 93 90 87 85 85 85 85 84 82 82 82 81 81 78 76 75 77 79 78 76 73 71 66 59 53 49 50 62 62 68 71 76 78 80 82 77 77 81
109 114 118 124 113 102 97 94 93 93 94 93 91 91 89 89 88 88 83 81 81 82 82 82 80 76 72 67 58 51 50 53 54 56 66 66 73 78 80 80 78 76 79
119 117 122 124 124 121 111 106 105 106 108 108 105 102 100 101 99 95 90 87 88 88 87 89 86 82 75 65 53 47 46 53 62 65 61 64 70 74 77 79 78 76 76
104 112 116 126 127 124 122 123 127 122 122 124 125 120 118 113 109 103 97 95 95 97 95 97 96 94 86 65 43 32 48 72 71 68 62 66 71 73 74 77 76 73 74
123 114 119 121 120 114 117 130 137 128 130 136 128 123 116 103 98 102 108 108 107 107 105 105 114 106 78 41 38 47 56 66 74 74 67 71 75 73 71 74 75 72 70
115 104 117 117 113 113 111 114 110 112 123 108 99 103 99 101 109 111 118 120 111 105 97 85 79 61 62 57 56 61 59 63 68 71 69 73 75 73 72 72 74 72 68
116 116 112 116 113 109 103 105 110 105 99 83 85 104 104 95 97 100 97 101 103 87 66 55 60 67 60 64 65 61 63 73 81 80 76 75 75 76 75 73 72 69 63
123 124 113 115 116 113 104 115 110 99 94 97 85 97 102 93 92 88 81 78 78 76 60 35 52 57 53 50 57 61 59 69 80 85 82 81 82 79 77 72 70 66 63
123 121 116 119 111 115 122 131 106 107 105 98 103 113 110 102 93 93 88 72 68 71 65 50 56 55 67 64 60 64 66 74 84 94 96 87 83 83 80 74 70 66 63
127 123 118 109 103 109 113 106 105 94 96 95 95 110 114 107 93 87 82 72 59 56 59 55 50 46 70 74 70 70 65 66 82 89 95 101 92 87 86 80 74 69 65
131 122 125 119 104 94 98 95 101 94 89 89 85 72 87 99 97 86 83 78 76 64 49 55 70 52 62 67 66 66 77 69 76 90 94 97 100 95 90 88 83 76 69
115 118 123 114 111 105 94 98 94 98 93 78 77 65 63 78 95 93 82 79 84 69 45 41 58 53 65 67 100 95 96 98 87 86 89 92 97 104 104 97 90 86 75
103 110 115 114 114 110 102 106 93 81 81 83 82 81 72 70 84 91 80 71 75 75 60 46 50 38 62 66 70 82 105 119 100 89 85 88 93 105 115 113 108 96 83
86 94 108 120 127 119 110 110 111 107 91 77 74 74 85 84 86 95 82 75 77 86 75 67 52 37 29 44 62 46 46 112 113 112 99 89 87 94 108 115 121 116 101
113 98 108 118 122 117 122 122 113 103 98 92 75 59 61 67 76 94 97 105 106 100 82 74 86 71 22 43 72 88 42 19 7 109 120 112 96 88 99 105 104 108 108
114 165 129 106 101 107 104 101 100 96 98 90 83 62 46 48 61 67 83 85 98 98 109 115 85 83 71 1 43 80 103 204 304 334 114 110 109 95 82 92 97 97 102
124 121 102 105 105 104 104 108 146 142 134 140 142 137 103 57 64 69 75 94 108 93 83 69 78 74 97 27 349 17 64 130 131 297 343 68 97 93 87 77 83 97 97
127 114 120 112 104 90 112 134 140 132 143 141 135 128 119 80 59 81 58 68 103 107 104 81 73 56 63 91 36 356 17 15 19 123 305 357 44 66 114 99 85 92 102
106 85 88 109 91 87 90 119 137 149 169 158 154 151 154 140 126 82 62 56 85 125 125 104 106 114 114 24 32 49 81 55 341 100 189 272 116 290 102 96 92 97 102
Height
1511 1509 1508 1508 1507 1507 1507 1506 1506 1506 1506 1506 1506 1505 1505 1504 1504 1505 1506 1507 1507 1506 1505 1506 1508 1509 1510 1511 1512 1513 1514 1514 1515 1516 1516 1516 1517 1517 1518 1519 1519 1520 1521
1511 1510 1509 1509 1508 1508 1508 1508 1508 1508 1507 1507 1507 1507 1506 1505 1505 1506 1507 1508 1508 1508 1506 1506 1509 1511 1512 1512 1513 1514 1515 1515 1516 1517 1517 1517 1518 1518 1519 1519 1520 1520 1521
1512 1511 1510 1510 1510 1509 1509 1509 1509 1509 1509 1509 1509 1509 1508 1508 1508 1509 1509 1510 1510 1510 1510 1510 1511 1512 1513 1514 1514 1515 1516 1516 1517 1517 1518 1518 1519 1519 1520 1520 1520 1521 1521
1513 1512 1511 1511 1511 1511 1511 1511 1511 1511 1511 1511 1511 1510 1510 1510 1510 1510 1511 1512 1512 1512 1512 1513 1513 1514 1514 1515 1515 1516 1517 1517 1518 1518 1518 1519 1519 1520 1520 1520 1521 1521 1521
1514 1513 1513 1513 1512 1512 1512 1512 1512 1512 1512 1512 1512 1512 1512 1512 1512 1512 1513 1513 1514 1514 1514 1515 1515 1515 1516 1516 1517 1517 1518 1518 1519 1519 1519 1519 1520 1520 1520 1521 1521 1521 1521
1515 1514 1514 1514 1514 1514 1514 1514 1514 1514 1514 1514 1514 1514 1514 1514 1514 1514 1515 1515 1515 1516 1516 1516 1517 1517 1517 1517 1518 1518 1519 1519 1519 1520 1520 1520 1520 1520 1520 1521 1521 1521 1522
1517 1516 1516 1515 1515 1515 1515 1515 1515 1515 1515 1515 1516 1515 1516 1516 1516 1516 1516 1517 1517 1517 1517 1518 1518 1518 1518 1519 1519 1520 1520 1520 1520 1520 1520 1520 1521 1521 1521 1521 1521 1521 1522
1518 1518 1517 1517 1517 1517 1517 1517 1517 1517 1517 1517 1517 1517 1517 1517 1517 1517 1518 1518 1518 1519 1519 1520 1520 1520 1520 1520 1520 1521 1521 1521 1521 1521 1521 1520 1521 1521 1521 1521 1521 1521 1522
1520 1519 1519 1519 1519 1518 1518 1518 1518 1518 1519 1519 1519 1519 1519 1519 1519 1519 1519 1519 1520 1520 1521 1521 1521 1521 1521 1522 1522 1522 1522 1522 1521 1521 1521 1521 1521 1521 1521 1521 1521 1521 1522
1521 1521 1521 1521 1520 1520 1520 1520 1520 1520 1520 1521 1521 1521 1521 1521 1521 1521 1521 1521 1521 1522 1522 1522 1523 1523 1523 1523 1523 1523 1523 1522 1522 1522 1521 1521 1521 1521 1521 1521 1522 1522 1521
1523 1523 1523 1523 1523 1522 1522 1522 1522 1522 1522 1523 1523 1523 1523 1523 1523 1523 1523 1523 1523 1523 1524 1524 1524 1525 1525 1525 1525 1524 1524 1523 1523 1522 1522 1522 1522 1522 1522 1522 1522 1522 1521
1523 1524 1524 1525 1525 1524 1524 1524 1524 1524 1524 1525 1525 1525 1525 1525 1525 1525 1525 1525 1525 1525 1525 1526 1526 1526 1526 1526 1526 1526 1525 1524 1523 1522 1522 1523 1523 1523 1523 1522 1522 1522 1522
1523 1524 1525 1525 1526 1526 1526 1526 1526 1526 1526 1527 1527 1527 1527 1527 1527 1527 1527 1527 1527 1527 1527 1527 1527 1528 1528 1528 1528 1527 1526 1525 1523 1523 1523 1524 1524 1524 1523 1523 1523 1523 1522
1524 1525 1526 1526 1527 1527 1527 1527 1528 1528 1528 1528 1528 1528 1528 1528 1529 1529 1529 1529 1528 1529 1529 1529 1529 1529 1529 1529 1529 1528 1527 1526 1525 1525 1525 1525 1525 1524 1524 1524 1524 1523 1523
1524 1525 1526 1527 1527 1527 1528 1528 1528 1529 1529 1529 1530 1530 1530 1530 1530 1530 1530 1530 1530 1530 1530 1530 1530 1530 1530 1530 1530 1529 1529 1528 1527 1526 1526 1526 1526 1525 1525 1525 1525 1524 1524
1524 1525 1526 1527 1527 1528 1528 1529 1529 1530 1530 1530 1530 1531 1531 1531 1531 1531 1531 1531 1531 1531 1531 1531 1531 1531 1531 1531 1531 1530 1530 1529 1529 1528 1527 1527 1527 1527 1526 1526 1525 1525 1524
1524 1525 1525 1527 1527 1528 1529 1529 1529 1530 1530 1531 1531 1532 1532 1532 1532 1532 1532 1532 1532 1532 1532 1532 1532 1532 1532 1532 1532 1531 1531 1531 1530 1530 1529 1529 1528 1528 1527 1527 1526 1526 1525
1523 1524 1525 1526 1527 1528 1529 1529 1530 1530 1531 1531 1531 1532 1532 1532 1532 1532 1532 1532 1532 1532 1532 1533 1533 1533 1533 1532 1532 1532 1532 1532 1531 1531 1531 1530 1529 1529 1528 1528 1527 1527 1526
1523 1523 1525 1526 1527 1528 1528 1529 1530 1530 1531 1531 1532 1532 1532 1533 1533 1533 1533 1533 1533 1532 1533 1533 1533 1533 1533 1533 1533 1533 1533 1533 1532 1532 1532 1532 1531 1530 1529 1529 1528 1528 1527
1522 1523 1524 1525 1526 1527 1528 1529 1529 1530 1531 1531 1532 1532 1532 1533 1533 1533 1533 1533 1533 1533 1533 1533 1533 1533 1533 1534 1534 1534 1534 1533 1533 1533 1533 1533 1532 1531 1530 1529 1529 1528 1528
1521 1522 1523 1524 1525 1526 1527 1528 1529 1529 1530 1531 1531 1532 1532 1532 1533 1533 1533 1533 1533 1533 1533 1533 1533 1533 1533 1533 1534 1534 1534 1534 1534 1534 1534 1534 1533 1532 1531 1530 1529 1529 1528
1520 1521 1522 1523 1524 1525 1526 1527 1528 1528 1529 1530 1531 1531 1531 1532 1532 1532 1532 1532 1532 1532 1532 1532 1532 1532 1532 1533 1533 1533 1534 1536 1535 1535 1534 1534 1534 1533 1532 1532 1530 1529 1528
1518 1520 1521 1521 1522 1523 1524 1526 1526 1527 1528 1529 1529 1530 1530 1531 1531 1531 1531 1532 1532 1532 1532 1532 1532 1532 1532 1533 1533 1534 1534 1534 1535 1535 1535 1534 1534 1533 1533 1532 1531 1530 1529
1517 1518 1519 1520 1521 1522 1523 1523 1525 1525 1526 1527 1528 1529 1529 1529 1530 1530 1531 1531 1531 1531 1532 1532 1532 1532 1532 1532 1533 1533 1534 1534 1534 1534 1535 1534 1534 1533 1533 1532 1531 1530 1529
1515 1516 1517 1519 1519 1520 1521 1522 1523 1524 1525 1526 1527 1527 1528 1528 1528 1529 1529 1530 1530 1531 1531 1531 1531 1532 1532 1532 1532 1532 1533 1533 1533 1534 1534 1534 1533 1533 1532 1532 1531 1530 1530
1513 1515 1516 1517 1518 1518 1519 1520 1521 1522 1523 1524 1524 1525 1526 1526 1527 1527 1528 1529 1529 1530 1530 1530 1531 1531 1531 1532 1532 1532 1532 1532 1533 1533 1533 1532 1532 1532 1532 1531 1531 1530 1529